STARLINK-5725 (55605 NORAD) Tracking and Keplerian Element Data

This shows tracking and keplerian element data for the satellite.

Feedback or suggestion? Click here.




ElementValue
Catalog55605
NameSTARLINK-5725
Epoch Orbit660
Epoch Day85.25001157
Epoch Year2023
RAAN103.8574
Inclination42.9982
Eccentricity0.0001211
Argument of Perigee266.7237
Mean Anonmoly100.5081
Mean Motion15.48938917
Decay Rate-0.00062709
L11 55605U 23020AN 23085.25001157 -.00062709 00000+0 -11359-2 0 9993
L22 55605 42.9982 103.8574 0001211 266.7237 100.5081 15.48938917 6605



Live tracking and technical data element details for STARLINK-5725 (NORAD 55605). STARLINK-5725 can be tracked NOW for your location showing map with azimuth and elevation plus other details from your city location.







IsCatalogInMostPopularTable: catalog: 55605, numindb: -1

Insert: records affected: 1


GetName: 55605 STARLINK-5725

Hit Count: inserted at: Tue, 28 Mar 2023 02:53:33 GMT